Vorticity
nan nan nan nan nan nan nan nan nan nan nan nan nan nan nan nan nan nan nan nan nan nan nan nan nan nan nan nan nan nan nan nan nan nan nan nan nan nan nan nan nan nan nan nan
nan 9 12 11 7 8 7 10 9 9 11 5 11 14 19 11 10 20 21 21 20 18 17 12 9 10 12 11 13 20 20 15 5 5 7 8 11 9 10 11 12 11 9 nan
nan 7 9 11 9 10 8 9 10 5 6 14 21 13 14 16 20 18 16 19 19 20 19 10 8 9 9 9 12 13 16 17 18 8 4 5 7 11 12 10 11 13 10 nan
nan 8 9 10 12 9 12 15 5 4 10 12 9 9 5 16 17 7 8 8 8 10 11 9 9 9 9 10 11 13 13 15 17 19 15 7 3 5 6 8 9 13 12 nan
nan 12 10 9 15 9 10 6 7 10 9 7 14 17 4 5 9 8 6 8 9 9 10 9 10 9 10 11 13 14 11 9 12 17 19 19 7 7 10 10 9 8 11 nan
nan 8 11 10 14 12 5 6 16 17 14 9 10 12 8 5 7 7 9 7 7 9 9 9 10 9 9 11 12 11 10 8 10 12 12 17 22 14 10 7 8 8 11 nan
nan 10 11 10 7 14 9 7 13 14 11 2 2 10 7 4 11 10 8 11 9 8 9 8 9 9 8 10 12 10 8 9 9 10 9 9 14 12 16 17 12 9 7 nan
nan 13 14 6 8 10 12 6 5 6 3 7 12 13 6 7 7 9 11 10 11 9 7 8 9 9 8 8 9 11 9 9 9 10 9 10 10 13 11 11 13 14 9 nan
nan 8 8 11 10 5 6 10 6 9 9 10 12 14 -0 -2 9 8 10 9 10 12 9 7 9 10 9 8 8 9 9 10 9 11 10 8 9 10 10 11 12 13 11 nan
nan 11 9 9 11 13 7 5 9 8 10 12 8 5 3 3 8 9 9 9 9 9 11 10 7 10 10 10 10 9 9 9 9 9 13 9 8 11 12 12 16 16 11 nan
nan 9 5 8 5 11 16 9 6 7 9 8 9 7 5 8 8 9 9 8 9 10 9 10 10 8 10 9 9 9 9 9 11 10 10 11 10 10 12 11 12 17 20 nan
nan 11 10 6 14 18 8 13 9 5 9 10 10 5 5 8 7 9 10 10 10 10 10 9 11 9 7 8 10 9 9 9 11 10 10 11 11 11 11 11 11 12 25 nan
nan 11 9 16 17 8 10 10 9 11 9 11 10 6 5 8 8 8 9 10 10 9 10 11 9 11 11 9 9 10 9 8 11 11 10 9 10 10 10 10 12 13 12 nan
nan 7 9 11 11 12 19 17 16 17 11 7 11 7 4 7 8 9 10 10 10 8 10 13 9 8 8 9 9 11 10 9 9 11 10 9 9 10 11 11 11 12 13 nan
nan 11 11 5 -1 8 17 23 23 17 17 15 13 7 6 7 8 11 11 6 7 9 9 10 11 10 10 9 8 9 10 10 10 10 10 10 10 10 10 10 11 11 12 nan
nan 10 10 9 1 -6 0 11 17 15 15 12 8 5 8 9 8 9 7 8 8 8 8 9 8 10 10 10 8 10 11 10 11 9 9 9 11 10 9 9 10 12 10 nan
nan 10 11 8 11 7 -0 5 13 9 9 13 11 11 9 6 7 9 9 8 7 9 9 9 9 9 10 9 10 8 10 11 10 9 9 9 10 10 10 11 9 9 10 nan
nan 12 12 10 11 13 11 8 3 2 10 15 13 10 8 4 2 6 8 9 8 9 9 10 10 9 10 10 12 10 8 10 9 9 10 10 10 10 10 10 10 10 9 nan
nan 11 11 9 12 11 8 3 3 2 5 9 16 14 8 1 -4 -2 7 10 9 10 11 10 11 10 9 9 11 12 9 8 10 9 9 10 11 11 10 10 11 11 10 nan
nan 11 15 11 11 7 3 5 12 10 7 8 14 14 16 11 4 3 5 9 10 10 10 9 10 11 10 10 11 10 10 8 8 10 10 10 10 10 11 11 12 13 11 nan
nan 8 12 13 12 7 4 14 16 16 11 10 10 15 19 15 14 12 7 8 11 9 8 11 10 10 8 11 10 10 11 11 9 11 10 9 10 10 10 12 11 13 12 nan
nan 11 10 10 12 5 10 21 14 15 13 10 10 12 14 12 9 7 8 8 9 10 9 11 11 8 9 11 11 8 9 11 11 11 11 11 12 12 9 10 11 10 11 nan
nan 11 11 10 12 10 12 15 16 15 11 10 11 9 8 8 8 8 7 7 8 10 11 10 9 9 8 9 11 8 9 11 11 11 11 10 11 11 10 9 11 11 10 nan
nan 11 15 14 11 11 10 7 12 16 14 14 12 11 10 9 8 8 8 8 9 9 10 10 9 9 9 9 10 8 9 12 11 9 10 10 9 10 12 11 9 10 10 nan
nan 13 9 11 12 8 9 11 11 11 10 9 11 13 12 9 9 9 8 9 10 9 9 10 10 8 8 9 9 9 10 12 11 10 9 11 10 9 11 10 10 12 11 nan
nan nan nan nan nan nan nan nan nan nan nan nan nan nan nan nan nan nan nan nan nan nan nan nan nan nan nan nan nan nan nan nan nan nan nan nan nan nan nan nan nan nan nan nan
CAPE
0 0 0 0 0 0 0 0 0 0 0 0 0 0 0 0 0 0 0 0 0 0 0 0 0 0 0 0 3 1946 2221 1932 1609 1338 1492 1323 1220 1163 1051 915 944 986 1034 501
0 0 0 0 0 0 0 0 0 0 0 0 0 0 0 0 0 0 0 0 0 0 0 0 0 0 0 0 0 0 725 2410 1978 1767 1791 1691 1583 1402 1376 1110 969 1015 1068 1095
0 0 0 0 0 0 0 0 0 0 0 0 0 0 0 0 0 0 1 1 1 1 0 0 0 0 0 0 0 0 0 0 2200 2365 2226 1836 1803 1525 1383 1243 980 850 995 1016
0 0 0 0 0 0 0 0 0 0 0 0 0 0 0 0 5 9 4 1 5 5 4 1 0 0 0 0 0 0 0 0 86 1498 2426 2009 1879 1778 1729 1357 1004 848 996 1197
0 0 0 0 0 0 0 0 0 0 0 0 0 1 0 0 3 19 23 9 7 6 7 6 3 2 0 0 0 0 0 0 0 6 878 2163 2061 2412 2171 1838 1306 1032 890 1222
0 0 0 0 0 0 0 0 0 0 0 5 0 0 3 12 31 26 17 23 15 9 9 8 3 1 1 0 0 1 0 0 0 0 0 0 1500 1985 1619 1890 1533 1127 1078 758
0 0 0 0 0 0 0 0 0 0 7 0 0 0 32 35 30 37 25 24 26 17 14 16 10 4 1 1 1 0 0 0 0 0 0 0 0 0 297 1743 1560 1197 949 539
0 0 0 0 0 0 0 0 0 0 0 0 0 20 26 38 36 20 3 18 13 20 17 20 18 7 4 2 1 1 1 1 0 0 0 0 0 2 2 3 321 1010 697 800
5 1 0 0 0 0 0 0 0 0 0 1 2 8 30 2 7 10 12 12 8 11 15 17 14 17 19 14 17 12 5 2 4 0 2 2 2 1 1 2 5 163 849 936
7 28 0 0 0 0 0 0 5 1 2 30 12 4 5 4 7 13 9 7 9 5 7 13 11 10 13 13 13 11 10 1 2 1 2 3 3 0 2 2 4 4 268 571
1 30 0 0 0 1 4 5 2 16 19 37 22 6 21 11 14 11 9 10 7 11 6 6 10 8 5 6 7 6 4 3 2 3 3 4 3 3 3 3 3 3 35 252
2 17 9 1 0 0 12 7 9 20 5 11 3 5 25 16 15 12 10 14 11 8 9 7 4 2 5 4 5 6 4 5 5 3 4 6 5 6 6 4 4 4 2 83
7 4 3 0 0 0 13 13 34 1 0 2 11 5 18 12 9 15 7 9 10 9 7 9 6 5 3 5 4 5 6 5 3 2 4 4 6 7 7 7 5 4 2 2
14 5 0 4 13 17 8 4 6 17 0 1 3 2 5 7 7 11 9 11 8 9 7 4 4 7 6 7 4 4 4 4 2 1 4 5 6 5 7 8 7 6 6 3
5 16 12 3 3 6 6 5 1 0 4 2 4 2 6 7 8 10 13 10 1 1 1 2 3 5 4 7 9 1 4 9 3 1 3 5 4 4 4 5 6 7 6 8
2 4 5 0 8 0 1 4 4 4 2 5 4 2 10 8 7 7 6 6 3 3 3 2 1 2 5 8 12 1 1 5 2 1 2 3 2 3 6 5 5 5 6 5
0 13 5 2 10 9 0 4 5 3 2 5 1 5 6 4 4 5 5 6 4 4 5 5 6 7 7 6 11 9 1 1 1 2 2 2 3 4 4 3 5 8 8 4
0 3 6 2 6 0 7 18 5 4 11 2 2 4 4 2 4 6 5 5 5 5 6 5 5 4 6 3 6 13 8 3 2 3 5 5 6 4 6 4 7 6 5 8
0 1 7 2 1 4 6 1 3 8 6 4 7 3 4 3 1 2 6 5 5 4 3 4 3 4 4 6 5 8 12 11 3 8 6 6 9 7 6 5 6 8 10 11
0 0 12 0 0 0 1 0 1 3 2 1 0 1 1 7 0 4 2 1 2 2 1 1 0 0 4 5 4 5 7 13 5 7 7 6 2 9 8 10 8 9 8 9
0 0 2 5 0 1 1 1 2 4 2 0 0 0 0 0 3 3 0 0 0 1 0 0 0 0 1 2 3 5 5 9 12 12 6 7 11 11 11 7 8 11 13 11
0 1 0 4 1 0 0 4 1 6 4 0 1 0 0 3 2 0 0 0 0 0 0 0 0 0 0 1 1 4 4 3 5 4 10 7 8 13 8 12 13 6 6 7
0 0 0 1 1 3 2 1 0 0 2 4 0 0 0 0 1 1 0 0 0 0 0 0 0 0 0 0 1 2 2 2 3 3 4 5 3 7 10 6 7 7 7 8
3 0 0 2 4 1 0 0 0 0 2 0 0 0 0 0 0 0 0 0 0 0 0 0 0 0 0 0 0 3 4 3 2 3 5 3 3 2 2 6 7 11 19 11
0 0 2 7 8 0 0 0 0 0 0 0 0 0 0 0 0 0 0 0 0 0 0 0 0 0 0 0 0 1 3 2 1 2 4 6 3 1 0 3 5 5 11 13
0 0 0 0 0 0 0 0 0 0 0 0 0 0 0 0 0 0 0 0 0 0 0 0 0 0 0 0 0 0 3 4 2 1 4 7 7 3 0 0 1 0 3 4